El Arish, Egypt

12:41 AM EET on December 05, 2016 (GMT +0200)
El Arish International

Weather History for HEAR - April, 2013

Change the Weather History Date:

Monday, April 29, 2013

  Actual Average Record
Temperature  
Mean Temperature 80 °F -  
Max Temperature 98 °F - - ()
Min Temperature 61 °F - - ()
Cooling Degree Days 14    
Growing Degree Days 30 (Base 50)    
Moisture  
Dew Point 38 °F    
Average Humidity 33    
Maximum Humidity 72    
Minimum Humidity 4    
Precipitation  
Precipitation 0.00 in - - ()
Sea Level Pressure  
Sea Level Pressure 29.88 in    
Wind  
Wind Speed 5 mph ()    
Max Wind Speed 13 mph    
Max Gust Speed -    
Visibility 6.0 miles    
Events      
T = Trace of Precipitation, MM = Missing Value Source: Averaged Metar Reports

Daily Weather History Graph

Daily Weather History Graph

Search for Another Location

Airport or City:

Trip Planner

Search our weather history database for the weather conditions in past years. The results will help you decide how hot, cold, wet, or windy it might be!

Date:

Astronomy

Apr. 29, 2013 Rise Set
Actual Time 5:02 AM EET 6:22 PM EET
Civil Twilight 4:36 AM EET 6:47 PM EET
Nautical Twilight 4:06 AM EET 7:18 PM EET
Astronomical Twilight 3:34 AM EET 7:50 PM EET
Moon 10:23 PM EET (4/29) 8:07 AM EET (4/29)
Length of Visible Light 14h 11m
Length of Day
13h 20m
Waning Gibbous, 82% of the Moon is Illuminated
Apr 29
Waning Gibbous
May 2
Last Quarter
May 10
New
May 18
First Quarter
May 25
Full

Hourly Weather History & Observations

Time (EET) Temp. Heat Index Dew Point Humidity Pressure Visibility Wind Dir Wind Speed Gust Speed Precip Events Conditions
12:00 AM 69.8 °F - 55.4 °F 60% 29.86 in - North 1.2 mph - N/A   Clear
1:00 AM 66.2 °F - 53.6 °F 64% 29.86 in - WSW 1.2 mph - N/A   Clear
2:00 AM 62 °F - 52 °F 61% 29.87 in 6 mi South 3.5 mph - -  
2:00 AM 62.6 °F - 51.8 °F 68% 29.86 in - South 3.5 mph - N/A   Clear
3:00 AM 60.8 °F - 51.8 °F 72% 29.86 in - South 2.3 mph - N/A   Clear
4:00 AM 60.8 °F - 50.0 °F 68% 29.86 in - South 2.3 mph - N/A   Clear
5:00 AM 66.2 °F - 21.2 °F 18% 29.86 in - South 1.2 mph - N/A   Clear
6:00 AM 68.0 °F - 24.8 °F 20% 29.89 in - SE 2.3 mph - N/A   Clear
7:00 AM 73.4 °F - 21.2 °F 14% 29.92 in - Calm Calm - N/A   Clear
8:00 AM 81 °F - 14 °F 4% 29.92 in 6 mi South 6.9 mph - -  
8:00 AM 80.6 °F - 14.0 °F 8% 29.92 in - South 6.9 mph - N/A   Clear
9:00 AM 87.8 °F - 8.6 °F 5% 29.92 in - SE 10.4 mph - N/A   Clear
10:00 AM 93.2 °F - 1.4 °F 4% 29.92 in - SSE 10.4 mph - N/A   Clear
11:00 AM 98.6 °F - -4.0 °F 4% 29.89 in - East 8.1 mph - N/A   Clear
12:00 PM 95.0 °F - 24.8 °F 8% 29.89 in - NNE 9.2 mph - N/A   Clear
1:00 PM 91.4 °F 89.4 °F 55.4 °F 29% 29.95 in - North 10.4 mph - N/A   Clear
2:00 PM 90 °F - 38 °F 8% 29.87 in 6 mi North 9.2 mph - -  
2:00 PM 89.6 °F - 37.4 °F 16% 29.86 in - North 9.2 mph - N/A   Clear
3:00 PM 89.6 °F - 39.2 °F 17% 29.86 in - North 10.4 mph - N/A   Clear
4:00 PM 86.0 °F - 39.2 °F 19% 29.86 in - North 12.7 mph - N/A   Clear
5:00 PM 84.2 °F - 46.4 °F 27% 29.83 in - NNE 10.4 mph - N/A   Clear
6:00 PM 78.8 °F - 50.0 °F 36% 29.86 in - NNE 11.5 mph - N/A   Clear
7:00 PM 75.2 °F - 53.6 °F 47% 29.86 in - NE 9.2 mph - N/A   Clear
8:00 PM 73 °F - 56 °F 44% 29.89 in 6 mi NE 8.1 mph - -  
8:00 PM 73.4 °F - 55.4 °F 53% 29.89 in - NE 8.1 mph - N/A   Clear
9:00 PM 73.4 °F - 51.8 °F 47% 29.89 in - NE 10.4 mph - N/A   Clear
10:00 PM 73.4 °F - 51.8 °F 47% 29.89 in - NE 10.4 mph - N/A   Clear
11:00 PM 71.6 °F - 51.8 °F 50% 29.89 in - NE 5.8 mph - N/A   Clear